RH
84 82 100 100 100 92 78 99 100 100 100 89 100 100 100 99 79 70 77 66 76 70 82 78 66 67 62 88 100 100 98 72 72 62 74 47 36 81 100 100 100 100 100 100
61 55 70 100 100 100 100 100 100 89 100 100 100 100 100 77 70 89 81 77 70 60 59 65 63 67 70 100 98 80 71 63 59 64 53 62 55 52 91 100 100 93 95 74
75 57 51 100 100 100 87 79 87 77 70 66 67 76 68 70 76 64 64 73 90 83 61 58 64 77 58 85 96 72 93 99 69 68 53 52 72 56 47 53 53 47 64 85
64 74 70 82 90 84 72 67 62 73 69 68 73 58 64 90 75 68 62 61 73 79 64 52 54 54 69 62 73 68 63 63 68 67 88 66 69 67 65 78 100 100 99 89
71 71 75 79 77 68 59 63 71 67 60 54 52 64 77 95 79 75 87 81 59 49 64 64 52 51 55 61 70 74 66 63 70 83 62 72 83 52 83 65 79 100 100 100
74 65 60 87 76 70 62 61 67 66 64 52 48 55 49 62 60 59 64 73 63 46 43 57 68 58 50 62 73 70 68 64 78 92 76 90 88 92 100 98 83 100 99 75
55 57 65 58 57 70 74 44 50 70 75 66 58 45 36 34 41 42 41 44 47 52 57 67 66 49 45 50 72 69 82 72 76 80 99 99 92 82 99 100 99 85 100 99
38 37 48 54 47 62 61 60 52 45 51 63 55 46 42 38 35 36 36 45 44 59 88 91 65 70 63 68 80 84 87 91 63 85 89 95 98 78 100 99 100 100 100 100
31 30 30 34 45 35 43 33 45 41 42 45 45 39 41 48 47 50 48 49 55 54 73 75 62 66 97 84 96 100 99 100 100 100 98 97 93 89 98 100 55 93 100 100
36 26 33 35 35 36 36 36 33 42 52 54 45 48 54 54 57 76 90 80 65 66 84 67 84 97 98 100 100 100 100 100 100 100 100 100 100 94 94 95 84 77 96 95
46 37 41 40 30 36 37 40 49 56 50 65 62 59 46 58 75 90 72 54 80 92 95 96 100 100 100 100 100 100 100 100 100 100 100 100 100 100 100 100 100 100 96 99
97 66 57 53 40 36 38 41 51 44 59 64 69 74 63 54 65 76 99 100 99 95 97 100 100 100 100 100 100 100 100 100 100 100 100 100 100 100 100 100 100 100 100 100
100 97 100 100 100 100 100 100 100 100 100 99 85 100 100 100 100 100 100 100 99 99 100 100 100 100 100 100 100 100 100 100 100 100 100 100 100 100 100 100 100 100 100 100
43 84 100 100 100 100 100 100 100 98 98 100 100 100 100 100 100 100 100 100 100 100 100 100 100 100 100 100 100 100 100 100 100 100 100 100 100 100 100 100 100 100 100 100
42 34 43 68 75 62 70 90 100 100 100 100 100 100 100 100 100 100 100 100 100 100 100 100 100 100 100 100 100 100 100 100 100 100 100 100 100 100 100 100 100 100 100 98
50 43 37 30 34 27 31 32 34 51 61 47 53 76 100 100 100 99 100 100 100 92 93 80 72 59 58 62 86 91 99 100 100 79 86 84 80 84 85 99 100 100 100 100
39 46 47 45 59 52 30 31 37 38 42 46 46 57 54 54 56 61 69 69 72 79 75 56 69 84 78 82 76 78 75 64 62 56 64 65 59 74 83 86 85 78 72 56
31 35 34 32 40 37 41 51 59 55 60 69 72 81 94 89 87 80 77 92 95 84 77 91 93 86 81 75 70 51 47 40 45 41 36 41 45 40 30 26 24 23 28 34
30 30 32 48 60 55 45 61 80 97 83 84 83 99 100 100 95 89 94 91 84 78 78 77 85 83 58 43 32 33 31 33 37 39 27 19 18 18 16 16 17 19 22 24
16 20 24 22 25 36 35 47 53 55 55 76 87 78 85 89 79 90 89 75 65 52 55 60 59 40 28 26 25 23 24 23 18 17 16 16 14 12 12 12 14 14 14 15
18 18 17 19 14 18 20 25 27 34 36 45 57 54 68 76 78 56 32 27 34 32 31 30 22 19 19 19 17 13 13 12 11 12 11 10 9 8 9 10 11 12 12 12
9 12 16 23 16 12 18 30 24 26 24 33 36 42 45 41 30 26 25 23 18 17 15 15 15 15 13 12 12 10 10 11 10 9 9 9 8 9 10 12 14 14 14 15
12 10 9 9 11 13 20 30 32 37 42 44 41 33 34 40 33 31 24 19 16 16 16 18 19 16 12 11 11 10 10 9 8 9 9 9 9 10 12 13 13 14 13 13
8 10 9 12 8 9 9 10 10 12 13 14 20 22 23 28 32 26 18 19 19 21 21 20 20 12 10 12 10 10 9 9 9 10 10 10 9 9 11 10 10 10 10 10
12 12 15 11 14 22 11 9 9 8 8 12 14 16 17 20 19 18 17 16 16 17 18 19 15 11 10 11 10 10 10 11 11 10 9 9 8 7 8 8 8 10 11 13
15 13 10 6 8 8 8 12 10 8 10 12 12 12 15 23 18 18 14 15 14 15 15 12 10 8 10 11 10 10 10 10 10 8 7 7 7 7 8 9 10 12 12 13
Wind_Speed
73 71 72 72 78 78 76 65 64 71 74 69 67 65 60 63 60 56 61 61 59 51 50 55 56 52 41 46 51 50 54 51 43 44 41 41 41 49 51 51 52 55 56 59
77 75 79 78 77 76 76 78 77 71 69 66 66 64 67 65 63 63 62 65 62 61 60 55 53 50 47 50 54 59 58 58 55 54 50 49 46 49 54 49 51 54 59 63
81 77 81 81 79 79 76 74 76 75 73 70 66 61 66 70 71 71 72 72 68 61 60 57 51 52 52 49 59 61 63 61 62 60 55 54 54 52 54 54 55 59 64 67
81 77 78 80 80 82 76 77 75 71 70 68 74 63 68 76 75 75 73 74 68 66 64 61 59 57 58 62 59 62 62 63 60 61 65 63 59 57 57 64 69 71 71 73
79 79 79 80 81 85 82 81 79 75 74 73 74 74 71 80 81 79 78 79 76 73 70 69 64 63 65 59 58 62 65 65 60 62 67 67 67 65 66 64 70 70 72 73
81 81 79 80 84 85 83 83 83 81 83 80 80 83 77 79 81 81 83 80 77 76 76 71 68 71 65 59 62 65 68 69 66 72 72 70 73 73 76 78 77 81 79 79
88 84 87 84 85 90 91 89 89 91 90 86 91 91 83 82 81 80 79 79 75 74 77 74 75 70 64 66 65 67 70 75 73 74 77 79 76 75 80 85 84 84 86 85
91 88 91 93 91 93 96 98 94 92 93 94 97 95 93 87 84 84 84 81 80 73 69 74 76 66 71 64 70 72 80 78 85 77 77 82 85 79 79 83 91 94 92 85
97 96 96 97 100 98 98 101 101 101 98 98 97 99 97 92 93 93 87 87 85 81 73 75 87 74 73 78 75 79 90 83 79 85 83 85 88 90 84 86 88 91 94 97
108 106 105 105 106 111 107 106 107 105 104 105 101 99 95 97 100 91 86 88 85 79 81 84 80 76 81 79 78 93 92 89 89 91 96 99 98 95 93 91 94 92 94 98
115 113 114 114 111 113 112 112 111 111 107 100 104 106 101 100 97 91 93 90 85 80 86 79 81 89 87 84 92 89 93 94 96 97 99 104 106 106 107 105 105 102 102 106
94 96 98 105 111 114 112 114 114 112 112 114 115 111 106 103 93 93 88 84 86 86 94 85 87 84 88 93 89 97 98 101 105 104 106 105 108 113 110 107 105 105 104 108
123 117 99 95 106 104 99 96 101 105 107 109 110 105 103 93 91 85 85 100 95 93 99 98 101 99 103 103 97 99 99 105 105 110 113 108 109 107 112 111 112 115 115 116
133 131 125 118 117 118 118 111 100 106 104 106 104 97 94 91 89 92 91 95 105 102 106 107 107 100 101 102 103 108 109 114 110 117 111 113 110 110 116 121 125 121 122 125
136 133 134 130 129 128 130 127 124 123 120 123 117 120 108 113 117 116 113 114 111 109 119 125 125 118 111 115 116 115 116 118 115 117 119 121 126 130 127 126 125 122 123 126
136 135 134 131 129 130 130 125 118 120 128 131 132 131 132 139 139 140 138 139 135 132 129 131 131 129 125 122 122 123 126 126 128 130 128 130 126 127 127 121 118 117 117 114
139 134 132 132 130 136 137 121 126 122 124 129 130 124 124 129 131 134 133 131 130 130 130 132 131 125 120 124 124 122 119 118 116 112 112 114 112 109 107 106 104 104 102 103
133 136 138 139 138 141 129 127 130 129 128 128 123 118 124 126 129 129 127 124 123 126 126 121 120 118 118 118 114 111 110 108 105 102 100 97 95 94 94 93 91 90 92 90
113 114 113 115 118 120 115 101 108 113 114 116 112 113 115 117 120 114 112 115 115 113 113 111 113 113 115 113 108 103 98 97 96 94 93 92 89 87 85 85 84 83 84 85
98 100 102 103 103 103 93 89 98 102 104 91 104 106 102 106 109 101 105 107 108 108 107 105 106 108 109 103 97 93 90 88 86 84 82 82 83 81 78 76 76 75 75 76
101 100 101 101 96 96 86 86 91 98 90 89 94 96 98 100 99 100 102 102 101 100 97 96 98 98 96 93 87 82 78 74 69 69 69 70 71 70 66 65 66 65 65 65
92 95 94 98 96 89 84 91 91 90 89 89 86 90 94 95 94 95 95 96 92 88 87 87 87 88 89 83 78 75 68 65 64 62 60 61 59 56 54 54 54 57 58 58
97 93 88 90 84 82 83 88 89 87 89 89 88 86 85 84 86 88 88 86 82 79 80 79 82 86 83 76 71 69 64 61 58 57 55 51 48 47 44 46 48 51 52 53
85 88 86 89 75 75 74 75 73 75 74 73 76 79 77 75 81 82 82 77 74 74 74 75 79 80 73 69 66 61 60 57 54 52 51 50 46 42 40 42 42 45 47 47
89 86 84 75 75 85 73 71 69 66 62 63 67 69 67 70 72 74 74 74 70 68 68 67 72 71 64 59 57 54 51 50 50 49 48 46 43 40 38 40 40 40 40 42
79 75 73 67 72 74 68 74 73 65 62 64 63 61 57 62 64 66 63 65 64 62 62 63 64 57 52 53 52 48 46 46 44 44 43 41 39 38 35 35 36 36 35 34
Wind_Direction
271 271 272 271 274 279 278 277 277 284 285 285 285 284 287 295 297 297 299 301 300 293 297 298 304 306 298 297 293 292 301 301 298 309 289 292 291 288 288 285 281 279 272 273
274 272 269 266 269 270 270 274 281 283 280 283 284 285 289 293 294 293 298 299 298 300 300 299 303 303 302 295 297 298 300 300 300 302 302 295 284 285 285 279 278 278 275 278
270 270 270 273 274 275 281 282 279 281 283 284 285 286 291 291 292 294 294 297 305 301 297 299 301 300 300 292 290 299 296 292 294 301 301 302 289 286 291 291 287 282 282 286
271 271 270 270 274 276 278 280 281 280 279 283 287 286 291 291 292 292 296 300 301 298 298 299 297 297 297 299 289 295 297 297 297 294 294 296 295 288 288 286 285 285 283 284
270 269 271 273 274 276 276 279 280 278 281 281 283 287 290 292 293 294 296 295 296 299 298 298 298 299 296 293 288 291 296 296 290 286 291 292 293 293 282 286 284 286 287 286
265 267 269 272 274 275 276 278 278 283 283 281 284 283 283 286 291 295 294 294 293 297 298 295 293 298 296 291 289 290 292 297 286 282 286 288 288 286 287 286 286 286 284 281
263 266 270 271 276 280 278 278 277 279 281 282 282 283 285 288 288 290 291 290 294 297 295 293 294 297 297 290 283 286 291 296 291 291 286 285 291 285 282 284 284 281 280 283
268 269 268 272 273 274 278 279 278 279 279 280 281 283 285 286 288 293 294 292 291 294 288 288 296 290 295 288 285 283 290 292 299 288 285 282 285 285 284 282 280 282 283 285
269 270 271 272 274 273 274 276 276 278 280 279 281 283 286 289 292 296 293 291 293 294 285 287 299 291 292 289 289 288 290 288 290 290 286 282 288 290 284 278 284 281 279 280
272 271 273 275 277 279 279 280 281 285 286 286 286 287 288 289 292 291 290 291 292 285 285 288 292 290 294 288 290 294 289 286 284 285 289 288 289 290 286 281 283 279 277 279
272 271 272 273 275 276 278 282 284 285 287 287 287 288 289 291 290 287 288 290 286 283 284 284 288 290 290 287 290 286 285 281 281 282 284 285 284 284 285 285 283 282 281 280
275 273 275 273 275 276 278 279 280 281 282 283 285 286 286 290 287 284 282 277 280 278 280 280 287 286 281 287 279 280 276 276 275 273 280 278 279 278 278 282 281 282 282 284
265 261 263 271 276 280 278 274 274 277 279 282 283 283 285 281 283 280 274 283 282 282 286 287 288 287 288 288 280 278 274 274 278 273 280 278 276 280 277 280 281 284 284 284
265 263 262 262 264 265 270 272 274 278 280 279 280 279 279 280 274 275 277 277 283 283 287 288 288 284 285 282 280 277 279 278 278 280 278 281 280 280 282 283 285 284 284 286
268 269 268 267 266 266 266 266 268 270 271 271 273 272 273 274 274 274 275 276 274 275 279 282 284 284 281 281 281 280 280 281 280 279 278 278 279 282 283 282 282 281 283 285
272 273 273 271 271 271 268 269 272 271 271 274 274 272 273 274 277 278 278 280 281 281 281 281 282 281 281 281 280 276 274 273 275 279 280 281 282 282 282 281 284 282 283 283
269 270 271 271 273 274 274 277 272 273 275 277 276 276 274 275 277 278 279 280 281 282 283 284 285 286 285 284 283 281 280 280 281 281 281 282 282 280 280 278 278 278 278 279
268 269 270 269 269 271 275 275 277 278 277 276 275 278 277 277 277 278 280 281 282 281 281 282 282 282 282 281 281 283 283 284 285 284 283 281 280 280 280 280 279 279 278 278
268 267 267 268 270 270 272 275 275 274 274 276 277 274 273 273 273 276 278 279 279 281 281 280 280 281 283 283 285 285 286 286 286 286 285 285 284 282 279 278 277 276 276 276
271 270 270 269 272 271 272 270 269 271 271 273 271 271 271 271 271 274 275 276 276 277 279 280 280 281 282 283 285 285 285 283 283 282 281 280 279 280 279 279 277 275 273 272
274 275 272 272 271 273 273 270 268 270 272 264 269 273 276 276 276 275 276 276 275 275 277 277 277 278 280 281 284 285 285 285 282 280 278 277 276 279 279 277 275 275 273 272
272 270 271 273 273 272 273 273 270 269 269 272 273 274 274 274 274 275 275 275 276 277 278 278 280 282 283 288 289 290 288 287 287 284 280 280 280 279 278 276 274 273 272 272
275 274 271 269 269 270 271 270 269 271 271 271 271 270 269 271 273 272 273 275 278 280 280 283 282 282 286 290 291 292 291 290 288 287 285 284 281 278 275 273 272 273 274 275
272 270 270 273 274 270 264 263 260 261 262 263 264 264 263 266 266 269 272 275 277 277 277 278 279 282 288 289 291 291 291 290 289 287 286 284 283 281 278 276 275 274 274 275
268 270 274 273 271 269 269 268 267 264 262 263 262 262 264 264 266 268 271 274 273 274 274 275 277 282 287 289 292 291 289 288 287 287 286 285 282 281 277 277 275 275 275 276
267 266 266 261 261 261 260 264 265 263 266 264 260 257 259 265 265 267 269 270 272 271 275 277 280 286 290 293 289 288 288 286 286 286 285 284 283 281 278 279 277 275 275 276